User: anonymous   Login
Location: Unspecified
(0.0000°N, 0.0000°E)
Time: 11:17:28
(UTC+02:00)
Language:

ATLAS 3B CENTAUR R/B - Orbit

View from above orbital plane
View from above orbital plane
View from above satellite
View from above satellite

Ground track
Ground track

The orbit data is extracted from the following two-line orbital elements,

1 28118U 03057B   17296.94394020 +.00107162 +45912-6 +15235-2 0  9993
2 28118 028.1043 145.7783 2974264 104.3443 290.1421 09.53101896133411
Epoch (UTC): 23 October 2017 22:39:16
Eccentricity: 0.2974264
inclination: 28.1043°
perigee height: 224 km
apogee height: 5813 km
right ascension of ascending node: 145.7783°
argument of perigee: 104.3443°
revolutions per day: 9.53101896
mean anomaly at epoch: 290.1421°
orbit number at epoch: 13341

The dashed part of the orbit path shows where the satellite is in the earth's shadow,  

DLR